This is the latest recevied weather packets stored in our database for station/object N7ZEF. If no packets are shown the sender has not sent any weather packets the latest 10 day(s).
| Time | Temp. | Humidity | Pressure | Rain* | Wind** | Luminosity | Snow |
|---|---|---|---|---|---|---|---|
| 1778101869 | 6.67° C | 45% | 1020.6 hPa | 0 mm | - | - | - |
| 1778101266 | 6.67° C | 46% | 1020.6 hPa | 0 mm | - | - | - |
| 1778100665 | 6.67° C | 46% | 1020.7 hPa | 0 mm | - | - | - |
| 1778100063 | 5.56° C | 48% | 1020.8 hPa | 0 mm | - | - | - |
| 1778099463 | 5.56° C | 48% | 1021.1 hPa | 0 mm | - | - | - |
| 1778098861 | 5.56° C | 46% | 1021.2 hPa | 0 mm | - | - | - |
| 1778098260 | 5.56° C | 47% | 1021.3 hPa | 0 mm | - | - | - |
| 1778097658 | 5.56° C | 48% | 1021.5 hPa | 0 mm | - | - | - |
| 1778097058 | 5.56° C | 49% | 1021.5 hPa | 0 mm | - | - | - |
| 1778096456 | 5° C | 49% | 1021.5 hPa | 0 mm | - | - | - |
| 1778095850 | 3.89° C | 55% | 1021.5 hPa | 0 mm | - | - | - |
| 1778095248 | 3.89° C | 53% | 1021.5 hPa | 0 mm | - | - | - |
| 1778094647 | 3.89° C | 49% | 1021.7 hPa | 0 mm | - | - | - |
| 1778094045 | 3.89° C | 54% | 1021.7 hPa | 0 mm | - | - | - |
| 1778093444 | 3.89° C | 61% | 1021.7 hPa | 0 mm | - | - | - |
| 1778092843 | 2.22° C | 60% | 1021.8 hPa | 0 mm | - | - | - |
| 1778092241 | 2.22° C | 61% | 1021.8 hPa | 0 mm | - | - | - |
| 1778091640 | 2.22° C | 58% | 1022 hPa | 0 mm | - | - | - |
| 1778091039 | 2.22° C | 60% | 1021.8 hPa | 0 mm | - | - | - |
| 1778090437 | 2.78° C | 60% | 1022.1 hPa | 0 mm | - | - | - |
| 1778089836 | 2.78° C | 64% | 1022.1 hPa | 0 mm | - | - | - |
| 1778089234 | 2.22° C | 62% | 1022 hPa | 0 mm | - | - | - |
| 1778088633 | 2.22° C | 63% | 1022.1 hPa | 0 mm | - | - | - |
| 1778088032 | 1.67° C | 63% | 1022.1 hPa | 0 mm | - | - | - |
| 1778087430 | 1.67° C | 63% | 1022.1 hPa | 0 mm | - | - | - |
* Rain latest hour (hover to see other rain measurements)
** Current wind speed in m/s (hover to see current wind gust speed)